QIANFAN-44 (62245 NORAD) Tracking and Keplerian Element Data

This shows tracking and keplerian element data for the satellite.

Feedback or suggestion? Click here.




ElementValue
Catalog62245
NameQIANFAN-44
Epoch Orbit5696
Epoch Day34.81131369
Epoch Year2025
RAAN73.1699
Inclination88.9888
Eccentricity0.0016548
Argument of Perigee31.4641
Mean Anonmoly328.7536
Mean Motion14.21608597
Decay Rate4.69E-06
L11 62245U 24232J 25034.81131369 .00000469 00000+0 20718-3 0 9997
L22 62245 88.9888 73.1699 0016548 31.4641 328.7536 14.21608597 56961



Live tracking and technical data element details for QIANFAN-44 (NORAD 62245). QIANFAN-44 can be tracked NOW for your location showing map with azimuth and elevation plus other details from your city location.







IsCatalogInMostPopularTable: catalog: 62245, numindb: 11
Update: records affected: 1



GetName: 62245 QIANFAN-44

Hit Count: updated at: Sat, 24 May 2025 15:50:29 GMT